When you browse on this site, cookies collect data to enhance your experience and personalize the content and advertising you see.
Visit our Privacy Policy to learn more. By continuing to use the site, you agree to this use of cookies and data.
  • en France
  • Liste des pays
  • À 7 jours
  • Température de l'eau
  • Carte météo
  • Widgets météo
  • user-avatar
    Se connecter

    Météo par heure à Aba-el-Baul

    Ce jour, 10 Avril, Vendredi

    Heure Température Précipitation Vent Pression Humidité
    00:00 +32°C° 0 mm 7 m/s 751 mmHg 39%
    01:00 +32°C° 0 mm 6 m/s 750 mmHg 38%
    02:00 +32°C° 0 mm 6 m/s 750 mmHg 38%
    03:00 +32°C° 0 mm 5 m/s 749 mmHg 38%
    04:00 +32°C° 0 mm 5 m/s 750 mmHg 36%
    05:00 +32°C° 0 mm 5 m/s 750 mmHg 34%
    06:00 +32°C° 0 mm 5 m/s 751 mmHg 32%
    07:00 +34°C° 0 mm 5 m/s 751 mmHg 25%
    08:00 +38°C° 0 mm 6 m/s 752 mmHg 18%
    09:00 +40°C° 0 mm 7 m/s 752 mmHg 10%
    10:00 +43°C° 0 mm 7 m/s 752 mmHg 10%
    11:00 +44°C° 0 mm 7 m/s 751 mmHg 9%
    12:00 +46°C° 0 mm 8 m/s 751 mmHg 8%
    13:00 +46°C° 0 mm 7 m/s 750 mmHg 8%
    14:00 +46°C° 0 mm 7 m/s 750 mmHg 8%
    15:00 +46°C° 0 mm 6 m/s 749 mmHg 8%
    16:00 +45°C° 0 mm 6 m/s 749 mmHg 10%
    17:00 +43°C° 0 mm 5 m/s 750 mmHg 11%
    18:00 +41°C° 0 mm 5 m/s 750 mmHg 12%
    19:00 +40°C° 0 mm 5 m/s 750 mmHg 14%
    20:00 +39°C° 0 mm 6 m/s 750 mmHg 15%
    21:00 +38°C° 0 mm 6 m/s 750 mmHg 17%
    22:00 +38°C° 0 mm 6 m/s 750 mmHg 16%
    23:00 +38°C° 0 mm 6 m/s 750 mmHg 15%

    Demain, 11 Avril, Samedi

    Heure Température Précipitation Vent Pression Humidité
    00:00 +38°C° 0 mm 7 m/s 750 mmHg 14%
    01:00 +36°C° 0 mm 6 m/s 750 mmHg 15%
    02:00 +35°C° 0 mm 6 m/s 749 mmHg 17%
    03:00 +34°C° 0 mm 6 m/s 749 mmHg 18%
    04:00 +34°C° 0 mm 5 m/s 750 mmHg 18%
    05:00 +34°C° 0 mm 5 m/s 750 mmHg 18%
    06:00 +33°C° 0 mm 5 m/s 751 mmHg 18%
    07:00 +35°C° 0 mm 7 m/s 751 mmHg 18%
    08:00 +38°C° 0 mm 9 m/s 751 mmHg 17%
    09:00 +41°C° 0 mm 11 m/s 751 mmHg 17%
    10:00 +42°C° 0 mm 11 m/s 751 mmHg 15%
    11:00 +43°C° 0 mm 10 m/s 751 mmHg 14%
    12:00 +44°C° 0 mm 10 m/s 751 mmHg 13%
    13:00 +44°C° 0 mm 10 m/s 750 mmHg 12%
    14:00 +44°C° 0 mm 9 m/s 749 mmHg 12%
    15:00 +44°C° 0 mm 8 m/s 748 mmHg 12%
    16:00 +43°C° 0 mm 7 m/s 749 mmHg 13%
    17:00 +41°C° 0 mm 5 m/s 749 mmHg 14%
    18:00 +38°C° 0 mm 4 m/s 749 mmHg 16%
    19:00 +37°C° 0 mm 4 m/s 750 mmHg 19%
    20:00 +36°C° 0 mm 5 m/s 750 mmHg 21%
    21:00 +35°C° 0 mm 6 m/s 750 mmHg 24%
    22:00 +35°C° 0 mm 5 m/s 750 mmHg 25%
    23:00 +34°C° 0 mm 4 m/s 750 mmHg 25%

    Après-demain, 12 Avril, Dimanche

    Heure Température Précipitation Vent Pression Humidité
    00:00 +33°C° 0 mm 3 m/s 750 mmHg 26%
    01:00 +31°C° 0 mm 3 m/s 750 mmHg 30%
    02:00 +30°C° 0 mm 3 m/s 750 mmHg 34%
    03:00 +29°C° 0 mm 2 m/s 750 mmHg 37%
    04:00 +29°C° 0 mm 3 m/s 750 mmHg 44%
    05:00 +28°C° 0 mm 3 m/s 750 mmHg 50%
    06:00 +27°C° 0 mm 4 m/s 751 mmHg 56%
    07:00 +29°C° 0 mm 3 m/s 751 mmHg 47%
    08:00 +31°C° 0 mm 2 m/s 752 mmHg 39%
    09:00 +34°C° 0 mm 1 m/s 752 mmHg 30%
    10:00 +36°C° 0 mm 2 m/s 752 mmHg 29%
    11:00 +37°C° 0 mm 3 m/s 751 mmHg 29%
    12:00 +38°C° 0 mm 4 m/s 751 mmHg 28%
    13:00 +39°C° 0 mm 5 m/s 751 mmHg 28%
    14:00 +39°C° 0 mm 5 m/s 750 mmHg 28%
    15:00 +38°C° 0 mm 6 m/s 750 mmHg 27%
    16:00 +36°C° 0.1 mm 6 m/s 750 mmHg 33%
    17:00 +34°C° 0.1 mm 7 m/s 750 mmHg 39%
    18:00 +32°C° 0.1 mm 7 m/s 751 mmHg 44%
    19:00 +30°C° 0.1 mm 7 m/s 751 mmHg 51%
    20:00 +29°C° 0.1 mm 7 m/s 752 mmHg 57%
    21:00 +28°C° 0.1 mm 6 m/s 752 mmHg 63%
    22:00 +27°C° 0.1 mm 7 m/s 752 mmHg 65%
    23:00 +27°C° 0.1 mm 7 m/s 752 mmHg 67%

    13 Avril, Lundi

    Heure Température Précipitation Vent Pression Humidité
    00:00 +27°C° 0.1 mm 7 m/s 752 mmHg 68%
    01:00 +27°C° 0.1 mm 7 m/s 752 mmHg 65%
    02:00 +27°C° 0.1 mm 7 m/s 752 mmHg 62%
    03:00 +27°C° 0.1 mm 6 m/s 751 mmHg 59%
    04:00 +27°C° 0.1 mm 7 m/s 752 mmHg 53%
    05:00 +27°C° 0.1 mm 7 m/s 752 mmHg 48%
    06:00 +27°C° 0.1 mm 7 m/s 752 mmHg 43%
    07:00 +28°C° 0 mm 7 m/s 753 mmHg 39%
    08:00 +29°C° 0 mm 7 m/s 753 mmHg 35%
    09:00 +30°C° 0 mm 7 m/s 754 mmHg 32%
    10:00 +32°C° 0 mm 6 m/s 753 mmHg 31%
    11:00 +33°C° 0 mm 6 m/s 753 mmHg 31%
    12:00 +34°C° 0 mm 6 m/s 753 mmHg 30%
    13:00 +34°C° 0.1 mm 6 m/s 753 mmHg 32%
    14:00 +34°C° 0.1 mm 6 m/s 752 mmHg 34%
    15:00 +34°C° 0.1 mm 6 m/s 752 mmHg 36%
    16:00 +33°C° 0.1 mm 6 m/s 752 mmHg 41%
    17:00 +32°C° 0.1 mm 6 m/s 752 mmHg 46%
    18:00 +29°C° 0.1 mm 6 m/s 752 mmHg 52%
    19:00 +29°C° 0.1 mm 5 m/s 753 mmHg 54%
    20:00 +29°C° 0.1 mm 5 m/s 753 mmHg 56%
    21:00 +29°C° 0.1 mm 4 m/s 754 mmHg 58%
    22:00 +28°C° 0.1 mm 4 m/s 754 mmHg 59%
    23:00 +28°C° 0.1 mm 4 m/s 753 mmHg 60%

    14 Avril, Mardi

    Heure Température Précipitation Vent Pression Humidité
    00:00 +27°C° 0.1 mm 4 m/s 753 mmHg 61%
    01:00 +27°C° 0.2 mm 3 m/s 753 mmHg 63%
    02:00 +26°C° 0.2 mm 3 m/s 753 mmHg 65%
    03:00 +26°C° 0.2 mm 3 m/s 752 mmHg 66%
    04:00 +26°C° 0 mm 3 m/s 753 mmHg 63%
    05:00 +26°C° 0 mm 4 m/s 753 mmHg 60%
    06:00 +26°C° 0 mm 4 m/s 753 mmHg 57%
    07:00 +27°C° 0 mm 5 m/s 753 mmHg 54%
    08:00 +29°C° 0 mm 5 m/s 753 mmHg 50%
    09:00 +30°C° 0 mm 5 m/s 753 mmHg 47%
    10:00 +32°C° 0 mm 5 m/s 753 mmHg 46%
    11:00 +33°C° 0 mm 6 m/s 753 mmHg 44%
    12:00 +34°C° 0 mm 6 m/s 752 mmHg 43%
    13:00 +34°C° 0 mm 6 m/s 752 mmHg 45%
    14:00 +33°C° 0 mm 6 m/s 752 mmHg 46%
    15:00 +33°C° 0 mm 6 m/s 751 mmHg 48%
    16:00 +32°C° 0.1 mm 6 m/s 751 mmHg 50%
    17:00 +32°C° 0.1 mm 6 m/s 751 mmHg 52%
    18:00 +30°C° 0.1 mm 6 m/s 751 mmHg 54%
    19:00 +29°C° 1.5 mm 7 m/s 752 mmHg 59%
    20:00 +28°C° 1.5 mm 7 m/s 753 mmHg 65%
    21:00 +26°C° 1.5 mm 8 m/s 754 mmHg 70%
    22:00 +26°C° 0.9 mm 7 m/s 753 mmHg 71%
    23:00 +26°C° 0.9 mm 7 m/s 753 mmHg 72%

    15 Avril, Mercredi

    Heure Température Précipitation Vent Pression Humidité
    00:00 +26°C° 0.9 mm 7 m/s 753 mmHg 73%
    01:00 +24°C° 1.4 mm 6 m/s 753 mmHg 78%
    02:00 +24°C° 1.4 mm 6 m/s 754 mmHg 82%
    03:00 +23°C° 1.4 mm 6 m/s 754 mmHg 87%
    04:00 +23°C° 0.2 mm 6 m/s 754 mmHg 84%
    05:00 +24°C° 0.2 mm 7 m/s 754 mmHg 82%
    06:00 +24°C° 0.2 mm 7 m/s 754 mmHg 79%
    07:00 +26°C° 0 mm 8 m/s 754 mmHg 75%
    08:00 +27°C° 0 mm 8 m/s 754 mmHg 70%
    09:00 +28°C° 0 mm 9 m/s 755 mmHg 66%
    10:00 +29°C° 0 mm 9 m/s 754 mmHg 62%
    11:00 +29°C° 0 mm 9 m/s 754 mmHg 59%
    12:00 +31°C° 0 mm 8 m/s 754 mmHg 56%
    13:00 +31°C° 0 mm 8 m/s 753 mmHg 56%
    14:00 +31°C° 0 mm 8 m/s 753 mmHg 57%
    15:00 +31°C° 0 mm 8 m/s 752 mmHg 57%
    16:00 +31°C° 0.1 mm 8 m/s 752 mmHg 58%
    17:00 +29°C° 0.1 mm 7 m/s 752 mmHg 59%
    18:00 +28°C° 0.1 mm 7 m/s 751 mmHg 60%
    19:00 +28°C° 1 mm 6 m/s 752 mmHg 61%
    20:00 +28°C° 1 mm 4 m/s 752 mmHg 63%
    21:00 +28°C° 1 mm 3 m/s 753 mmHg 65%
    22:00 +27°C° 2.3 mm 3 m/s 753 mmHg 69%
    23:00 +26°C° 2.3 mm 4 m/s 753 mmHg 74%
    Voir plus